Time,TemperatureF,DewpointF,PressureIn,WindDirection,WindDirectionDegrees,WindSpeedMPH,WindSpeedGustMPH,Humidity,HourlyPrecipIn,Conditions,Clouds,dailyrainin,SoftwareType,DateUTC
2013-06-18 00:01:00,63.8,60.5,29.90,SSE,150,0.0,0.0,89,0.00,,,0.00,LWC V2.10 B1702,2013-06-18 04:01:00,
2013-06-18 00:06:00,63.7,60.4,29.90,SSE,150,0.0,0.0,89,0.00,,,0.00,LWC V2.10 B1702,2013-06-18 04:06:00,
2013-06-18 00:11:00,63.6,60.3,29.90,SSE,150,0.0,0.0,89,0.00,,,0.00,LWC V2.10 B1702,2013-06-18 04:11:00,
2013-06-18 00:16:00,63.5,60.2,29.90,SSE,150,0.0,0.0,89,0.00,,,0.00,LWC V2.10 B1702,2013-06-18 04:16:00,
2013-06-18 00:21:00,63.4,60.1,29.90,SSE,150,0.0,0.0,89,0.00,,,0.00,LWC V2.10 B1702,2013-06-18 04:21:00,
2013-06-18 00:26:00,63.3,60.0,29.90,SSE,150,0.0,0.0,89,0.00,,,0.00,LWC V2.10 B1702,2013-06-18 04:26:00,
2013-06-18 00:31:00,63.1,59.8,29.90,SSE,150,0.0,0.0,89,0.00,,,0.00,LWC V2.10 B1702,2013-06-18 04:31:00,
2013-06-18 00:36:00,63.0,59.7,29.90,SSE,150,0.0,0.0,89,0.00,,,0.00,LWC V2.10 B1702,2013-06-18 04:36:00,
2013-06-18 00:41:00,62.9,59.6,29.90,SSE,150,0.0,0.0,89,0.00,,,0.00,LWC V2.10 B1702,2013-06-18 04:41:00,
2013-06-18 00:46:00,62.7,59.4,29.90,SSE,150,0.0,0.0,89,0.00,,,0.00,LWC V2.10 B1702,2013-06-18 04:46:00,
2013-06-18 00:51:00,62.6,59.3,29.90,SSE,150,0.0,0.0,89,0.00,,,0.00,LWC V2.10 B1702,2013-06-18 04:51:00,
2013-06-18 00:56:00,62.4,59.1,29.89,SSE,150,0.0,0.0,89,0.00,,,0.00,LWC V2.10 B1702,2013-06-18 04:56:00,
2013-06-18 01:01:00,62.3,59.0,29.89,SSE,150,0.0,0.0,89,0.00,,,0.00,LWC V2.10 B1702,2013-06-18 05:01:00,
2013-06-18 01:06:00,62.1,59.1,29.90,SSE,150,0.0,0.0,90,0.00,,,0.00,LWC V2.10 B1702,2013-06-18 05:06:00,
2013-06-18 01:11:00,61.8,58.8,29.90,SSE,150,0.0,0.0,90,0.00,,,0.00,LWC V2.10 B1702,2013-06-18 05:11:00,
2013-06-18 01:16:00,61.5,58.5,29.90,SSE,150,0.0,0.0,90,0.00,,,0.00,LWC V2.10 B1702,2013-06-18 05:16:00,
2013-06-18 01:21:00,61.5,58.8,29.90,SSE,150,0.0,0.0,91,0.00,,,0.00,LWC V2.10 B1702,2013-06-18 05:21:00,
2013-06-18 01:26:00,61.4,58.7,29.89,SSE,150,0.0,0.0,91,0.00,,,0.00,LWC V2.10 B1702,2013-06-18 05:26:00,
2013-06-18 01:31:00,61.4,58.7,29.90,SSE,150,0.0,0.0,91,0.00,,,0.00,LWC V2.10 B1702,2013-06-18 05:31:00,
2013-06-18 01:36:00,61.4,58.7,29.90,SSE,150,0.0,0.0,91,0.00,,,0.00,LWC V2.10 B1702,2013-06-18 05:36:00,
2013-06-18 01:41:00,61.4,58.7,29.90,SSE,150,0.0,0.0,91,0.00,,,0.00,LWC V2.10 B1702,2013-06-18 05:41:00,
2013-06-18 01:46:00,61.5,58.8,29.90,SSE,150,0.0,0.0,91,0.00,,,0.00,LWC V2.10 B1702,2013-06-18 05:46:00,
2013-06-18 01:51:00,61.4,58.7,29.90,SSE,150,0.0,0.0,91,0.00,,,0.00,LWC V2.10 B1702,2013-06-18 05:51:00,
2013-06-18 01:56:00,61.4,58.7,29.89,SSE,150,0.0,0.0,91,0.00,,,0.00,LWC V2.10 B1702,2013-06-18 05:56:00,
2013-06-18 02:00:00,61.4,58.7,29.89,SSE,150,0.0,0.0,91,0.00,,,0.00,LWC V2.10 B1702,2013-06-18 06:00:00,
2013-06-18 02:02:00,61.4,58.7,29.90,SSE,150,0.0,0.0,91,0.00,,,0.00,LWC V2.10 B1702,2013-06-18 06:02:00,
2013-06-18 02:07:00,61.4,58.7,29.90,SSE,150,0.0,0.0,91,0.00,,,0.00,LWC V2.10 B1702,2013-06-18 06:07:00,
2013-06-18 02:12:00,61.3,58.6,29.90,SSE,150,0.0,0.0,91,0.00,,,0.00,LWC V2.10 B1702,2013-06-18 06:12:00,
2013-06-18 02:17:00,61.3,58.6,29.90,SSE,150,0.0,0.0,91,0.00,,,0.00,LWC V2.10 B1702,2013-06-18 06:17:00,
2013-06-18 02:22:00,61.2,58.5,29.89,SSE,150,0.0,0.0,91,0.00,,,0.00,LWC V2.10 B1702,2013-06-18 06:22:00,
2013-06-18 02:27:00,61.0,58.3,29.89,SSE,150,0.0,0.0,91,0.00,,,0.00,LWC V2.10 B1702,2013-06-18 06:27:00,
2013-06-18 02:32:00,60.9,58.3,29.89,SSE,150,0.0,0.0,91,0.00,,,0.00,LWC V2.10 B1702,2013-06-18 06:32:00,
2013-06-18 02:37:00,60.8,58.2,29.89,SSE,150,0.0,0.0,91,0.00,,,0.00,LWC V2.10 B1702,2013-06-18 06:37:00,
2013-06-18 02:42:00,60.8,58.5,29.89,SSE,150,0.0,0.0,92,0.00,,,0.00,LWC V2.10 B1702,2013-06-18 06:42:00,
2013-06-18 02:48:00,60.8,58.5,29.89,SSE,150,0.0,0.0,92,0.00,,,0.00,LWC V2.10 B1702,2013-06-18 06:48:00,
2013-06-18 02:53:00,60.9,58.6,29.90,SSE,150,0.0,0.0,92,0.00,,,0.00,LWC V2.10 B1702,2013-06-18 06:53:00,
2013-06-18 02:58:00,60.9,58.6,29.89,SSE,150,0.0,0.0,92,0.00,,,0.00,LWC V2.10 B1702,2013-06-18 06:58:00,
2013-06-18 03:03:00,60.9,58.6,29.89,SSE,150,0.0,0.0,92,0.00,,,0.00,LWC V2.10 B1702,2013-06-18 07:03:00,
2013-06-18 03:08:00,60.9,58.6,29.89,SSE,150,0.0,0.0,92,0.00,,,0.00,LWC V2.10 B1702,2013-06-18 07:08:00,
2013-06-18 03:13:00,60.9,58.6,29.89,SSE,150,0.0,0.0,92,0.00,,,0.00,LWC V2.10 B1702,2013-06-18 07:13:00,
2013-06-18 03:18:00,60.9,58.6,29.89,SSE,150,0.0,0.0,92,0.00,,,0.00,LWC V2.10 B1702,2013-06-18 07:18:00,
2013-06-18 03:23:00,60.9,58.6,29.89,SSE,150,0.0,0.0,92,0.00,,,0.00,LWC V2.10 B1702,2013-06-18 07:23:00,
2013-06-18 03:28:00,60.9,58.6,29.89,SSE,150,0.0,0.0,92,0.00,,,0.00,LWC V2.10 B1702,2013-06-18 07:28:00,
2013-06-18 03:33:00,60.9,58.6,29.89,SSE,150,0.0,0.0,92,0.00,,,0.00,LWC V2.10 B1702,2013-06-18 07:33:00,
2013-06-18 03:38:00,60.8,58.5,29.89,SSE,150,0.0,0.0,92,0.00,,,0.00,LWC V2.10 B1702,2013-06-18 07:38:00,
2013-06-18 03:43:00,60.7,58.4,29.89,SSE,150,0.0,0.0,92,0.00,,,0.00,LWC V2.10 B1702,2013-06-18 07:43:00,
2013-06-18 03:48:00,60.7,58.4,29.89,SSE,150,0.0,0.0,92,0.00,,,0.00,LWC V2.10 B1702,2013-06-18 07:48:00,
2013-06-18 03:53:00,60.5,58.2,29.89,SSE,150,0.0,0.0,92,0.00,,,0.00,LWC V2.10 B1702,2013-06-18 07:53:00,
2013-06-18 03:58:00,60.5,58.2,29.89,SSE,150,0.0,0.0,92,0.00,,,0.00,LWC V2.10 B1702,2013-06-18 07:58:00,
2013-06-18 04:03:00,60.4,58.1,29.89,SSE,150,0.0,0.0,92,0.00,,,0.00,LWC V2.10 B1702,2013-06-18 08:03:00,
2013-06-18 04:08:00,60.3,58.0,29.89,SSE,150,0.0,0.0,92,0.00,,,0.00,LWC V2.10 B1702,2013-06-18 08:08:00,
2013-06-18 04:13:00,60.3,58.0,29.89,SSE,150,0.0,0.0,92,0.00,,,0.00,LWC V2.10 B1702,2013-06-18 08:13:00,
2013-06-18 04:18:00,60.3,58.0,29.90,SSE,150,0.0,0.0,92,0.00,,,0.00,LWC V2.10 B1702,2013-06-18 08:18:00,
2013-06-18 04:23:00,60.3,58.0,29.90,SSE,150,0.0,0.0,92,0.00,,,0.00,LWC V2.10 B1702,2013-06-18 08:23:00,
2013-06-18 04:28:00,60.3,58.0,29.90,SSE,150,0.0,0.0,92,0.00,,,0.00,LWC V2.10 B1702,2013-06-18 08:28:00,
2013-06-18 04:33:00,60.2,57.9,29.90,SSE,150,0.0,0.0,92,0.00,,,0.00,LWC V2.10 B1702,2013-06-18 08:33:00,
2013-06-18 04:38:00,60.2,57.9,29.90,SSE,150,0.0,0.0,92,0.00,,,0.00,LWC V2.10 B1702,2013-06-18 08:38:00,
2013-06-18 04:43:00,60.1,57.8,29.90,SSE,150,0.0,0.0,92,0.00,,,0.00,LWC V2.10 B1702,2013-06-18 08:43:00,
2013-06-18 04:48:00,60.1,57.8,29.90,SSE,150,0.0,0.0,92,0.00,,,0.00,LWC V2.10 B1702,2013-06-18 08:48:00,
2013-06-18 04:53:00,60.2,57.9,29.90,SSE,150,0.0,0.0,92,0.00,,,0.00,LWC V2.10 B1702,2013-06-18 08:53:00,
2013-06-18 04:58:00,60.2,57.9,29.90,SSE,150,0.0,0.0,92,0.00,,,0.00,LWC V2.10 B1702,2013-06-18 08:58:00,
2013-06-18 05:03:00,60.2,57.9,29.90,SSE,150,0.0,0.0,92,0.00,,,0.00,LWC V2.10 B1702,2013-06-18 09:03:00,
2013-06-18 05:08:00,60.1,57.8,29.90,SSE,150,0.0,0.0,92,0.00,,,0.00,LWC V2.10 B1702,2013-06-18 09:08:00,
2013-06-18 05:13:00,60.1,57.8,29.91,SSE,150,0.0,0.0,92,0.00,,,0.00,LWC V2.10 B1702,2013-06-18 09:13:00,
2013-06-18 05:18:00,60.1,57.8,29.90,SSE,150,0.0,0.0,92,0.00,,,0.00,LWC V2.10 B1702,2013-06-18 09:18:00,
2013-06-18 05:23:00,60.2,58.2,29.90,SSE,150,0.0,0.0,93,0.00,,,0.00,LWC V2.10 B1702,2013-06-18 09:23:00,
2013-06-18 05:28:00,60.2,58.2,29.91,SSE,150,0.0,0.0,93,0.00,,,0.00,LWC V2.10 B1702,2013-06-18 09:28:00,
2013-06-18 05:33:00,60.2,58.2,29.91,SSE,150,0.0,0.0,93,0.00,,,0.00,LWC V2.10 B1702,2013-06-18 09:33:00,
2013-06-18 05:38:00,60.2,57.9,29.90,SSE,150,0.0,0.0,92,0.00,,,0.00,LWC V2.10 B1702,2013-06-18 09:38:00,
2013-06-18 05:43:00,60.2,57.9,29.91,SSE,150,0.0,0.0,92,0.00,,,0.00,LWC V2.10 B1702,2013-06-18 09:43:00,
2013-06-18 05:48:00,60.2,57.9,29.91,SSE,150,0.0,0.0,92,0.00,,,0.00,LWC V2.10 B1702,2013-06-18 09:48:00,
2013-06-18 05:53:00,60.1,57.8,29.91,SSE,150,0.0,0.0,92,0.00,,,0.00,LWC V2.10 B1702,2013-06-18 09:53:00,
2013-06-18 05:58:00,60.1,57.8,29.91,SSE,150,0.0,0.0,92,0.00,,,0.00,LWC V2.10 B1702,2013-06-18 09:58:00,
2013-06-18 06:03:00,60.1,58.1,29.91,WNW,283,0.0,0.0,93,0.00,,,0.00,LWC V2.10 B1702,2013-06-18 10:03:00,
2013-06-18 06:08:00,60.1,58.1,29.91,WNW,283,0.0,0.0,93,0.00,,,0.00,LWC V2.10 B1702,2013-06-18 10:08:00,
2013-06-18 06:13:00,60.1,58.1,29.91,WNW,283,0.0,0.0,93,0.00,,,0.00,LWC V2.10 B1702,2013-06-18 10:13:00,
2013-06-18 06:18:00,60.1,58.1,29.91,WNW,283,0.0,0.0,93,0.00,,,0.00,LWC V2.10 B1702,2013-06-18 10:18:00,
2013-06-18 06:23:00,60.2,58.2,29.91,WNW,283,0.0,0.0,93,0.00,,,0.00,LWC V2.10 B1702,2013-06-18 10:23:00,
2013-06-18 06:28:00,60.3,58.3,29.91,WNW,283,0.0,0.0,93,0.00,,,0.00,LWC V2.10 B1702,2013-06-18 10:28:00,
2013-06-18 06:33:00,60.5,58.5,29.91,WNW,283,0.0,0.0,93,0.00,,,0.00,LWC V2.10 B1702,2013-06-18 10:33:00,
2013-06-18 06:38:00,60.8,59.1,29.91,WNW,283,0.0,0.0,94,0.00,,,0.00,LWC V2.10 B1702,2013-06-18 10:38:00,
2013-06-18 06:43:00,61.1,59.4,29.91,WNW,283,0.0,0.0,94,0.00,,,0.00,LWC V2.10 B1702,2013-06-18 10:43:00,
2013-06-18 06:48:00,61.5,59.8,29.91,WNW,283,0.0,0.0,94,0.00,,,0.00,LWC V2.10 B1702,2013-06-18 10:48:00,
2013-06-18 06:50:00,61.7,60.0,29.91,WNW,283,0.0,0.0,94,0.00,,,0.00,LWC V2.10 B1702,2013-06-18 10:50:00,
2013-06-18 06:55:00,62.0,60.2,29.91,WNW,283,0.0,0.0,94,0.00,,,0.00,LWC V2.10 B1702,2013-06-18 10:55:00,
2013-06-18 07:00:00,62.2,60.4,29.91,WNW,283,0.0,0.0,94,0.00,,,0.00,LWC V2.10 B1702,2013-06-18 11:00:00,
2013-06-18 07:05:00,62.5,60.7,29.91,WNW,283,0.0,0.0,94,0.00,,,0.00,LWC V2.10 B1702,2013-06-18 11:05:00,
2013-06-18 07:10:00,62.8,61.0,29.91,WNW,283,0.0,0.0,94,0.00,,,0.00,LWC V2.10 B1702,2013-06-18 11:10:00,
2013-06-18 07:15:00,63.2,61.4,29.91,WNW,283,0.0,0.0,94,0.00,,,0.00,LWC V2.10 B1702,2013-06-18 11:15:00,
2013-06-18 07:20:00,63.4,61.9,29.91,WNW,283,0.0,0.0,95,0.00,,,0.00,LWC V2.10 B1702,2013-06-18 11:20:00,
2013-06-18 07:25:00,63.8,62.3,29.91,WNW,283,0.0,0.0,95,0.00,,,0.00,LWC V2.10 B1702,2013-06-18 11:25:00,
2013-06-18 07:30:00,64.1,62.3,29.92,WNW,283,0.0,0.0,94,0.00,,,0.00,LWC V2.10 B1702,2013-06-18 11:30:00,
2013-06-18 07:35:00,64.3,62.8,29.92,WNW,283,0.0,0.0,95,0.00,,,0.00,LWC V2.10 B1702,2013-06-18 11:35:00,
2013-06-18 07:40:00,64.6,62.8,29.92,WNW,283,0.0,0.0,94,0.00,,,0.00,LWC V2.10 B1702,2013-06-18 11:40:00,
2013-06-18 07:45:00,64.9,63.4,29.92,WNW,283,0.0,0.0,95,0.00,,,0.00,LWC V2.10 B1702,2013-06-18 11:45:00,
2013-06-18 07:50:00,65.2,63.4,29.92,WNW,283,0.0,0.0,94,0.00,,,0.00,LWC V2.10 B1702,2013-06-18 11:50:00,
2013-06-18 07:55:00,65.5,64.0,29.92,WNW,283,0.0,0.0,95,0.00,,,0.00,LWC V2.10 B1702,2013-06-18 11:55:00,
2013-06-18 08:00:00,65.7,63.9,29.92,WNW,283,0.0,0.0,94,0.00,,,0.00,LWC V2.10 B1702,2013-06-18 12:00:00,
2013-06-18 08:05:00,66.0,64.2,29.92,WNW,283,0.0,0.0,94,0.00,,,0.00,LWC V2.10 B1702,2013-06-18 12:05:00,
2013-06-18 08:10:00,66.3,64.2,29.92,WNW,285,0.0,0.0,93,0.00,,,0.00,LWC V2.10 B1702,2013-06-18 12:10:00,
2013-06-18 08:15:00,66.7,64.6,29.93,WNW,285,0.0,0.0,93,0.00,,,0.00,LWC V2.10 B1702,2013-06-18 12:15:00,
2013-06-18 08:20:00,67.1,64.7,29.93,WNW,285,0.0,1.0,92,0.00,,,0.00,LWC V2.10 B1702,2013-06-18 12:20:00,
2013-06-18 08:25:00,67.6,65.2,29.93,WNW,285,0.0,1.0,92,0.00,,,0.00,LWC V2.10 B1702,2013-06-18 12:25:00,
2013-06-18 08:30:00,68.1,65.4,29.93,WNW,285,0.0,1.0,91,0.00,,,0.00,LWC V2.10 B1702,2013-06-18 12:30:00,
2013-06-18 08:35:00,68.7,65.6,29.93,WNW,285,0.0,0.0,90,0.00,,,0.00,LWC V2.10 B1702,2013-06-18 12:35:00,
2013-06-18 08:40:00,69.4,66.0,29.93,WNW,285,0.0,1.0,89,0.00,,,0.00,LWC V2.10 B1702,2013-06-18 12:40:00,
2013-06-18 08:45:00,70.2,66.1,29.93,WNW,286,0.0,1.0,87,0.00,,,0.00,LWC V2.10 B1702,2013-06-18 12:45:00,
2013-06-18 08:50:00,71.0,66.3,29.93,WNW,286,0.0,0.0,85,0.00,,,0.00,LWC V2.10 B1702,2013-06-18 12:50:00,
2013-06-18 08:55:00,71.8,66.0,29.93,WNW,286,0.0,0.0,82,0.00,,,0.00,LWC V2.10 B1702,2013-06-18 12:55:00,
2013-06-18 09:00:00,72.6,66.1,29.93,WNW,286,0.0,1.0,80,0.00,,,0.00,LWC V2.10 B1702,2013-06-18 13:00:00,
2013-06-18 09:05:00,73.0,66.8,29.93,WNW,286,0.0,0.0,81,0.00,,,0.00,LWC V2.10 B1702,2013-06-18 13:05:00,
2013-06-18 09:10:00,73.4,67.2,29.93,WNW,286,0.0,0.0,81,0.00,,,0.00,LWC V2.10 B1702,2013-06-18 13:10:00,
2013-06-18 09:15:00,73.4,66.8,29.93,WNW,286,0.0,0.0,80,0.00,,,0.00,LWC V2.10 B1702,2013-06-18 13:15:00,
2013-06-18 09:20:00,73.2,66.3,29.93,WNW,286,0.0,0.0,79,0.00,,,0.00,LWC V2.10 B1702,2013-06-18 13:20:00,
2013-06-18 09:25:00,73.0,66.8,29.93,WNW,286,0.0,0.0,81,0.00,,,0.00,LWC V2.10 B1702,2013-06-18 13:25:00,
2013-06-18 09:30:00,73.0,66.5,29.93,WNW,286,0.0,0.0,80,0.00,,,0.00,LWC V2.10 B1702,2013-06-18 13:30:00,
2013-06-18 09:35:00,73.1,66.9,29.92,WNW,286,0.0,0.0,81,0.00,,,0.00,LWC V2.10 B1702,2013-06-18 13:35:00,
2013-06-18 09:40:00,73.5,66.2,29.93,WNW,286,0.0,0.0,78,0.00,,,0.00,LWC V2.10 B1702,2013-06-18 13:40:00,
2013-06-18 09:45:00,74.3,64.7,29.92,WNW,286,0.0,0.0,72,0.00,,,0.00,LWC V2.10 B1702,2013-06-18 13:45:00,
2013-06-18 09:50:00,75.1,66.2,29.92,West,274,0.0,0.0,74,0.00,,,0.00,LWC V2.10 B1702,2013-06-18 13:50:00,
2013-06-18 09:55:00,75.5,65.4,29.92,West,274,0.0,0.0,71,0.00,,,0.00,LWC V2.10 B1702,2013-06-18 13:55:00,
2013-06-18 10:00:00,75.5,65.8,29.92,West,274,0.0,0.0,72,0.00,,,0.00,LWC V2.10 B1702,2013-06-18 14:00:00,
2013-06-18 10:05:00,75.6,66.3,29.92,West,274,0.0,0.0,73,0.00,,,0.00,LWC V2.10 B1702,2013-06-18 14:05:00,
2013-06-18 10:10:00,76.1,66.4,29.92,West,275,0.0,0.0,72,0.00,,,0.00,LWC V2.10 B1702,2013-06-18 14:10:00,
2013-06-18 10:15:00,77.0,67.7,29.92,West,275,0.0,0.0,73,0.00,,,0.00,LWC V2.10 B1702,2013-06-18 14:15:00,
2013-06-18 10:20:00,77.8,67.6,29.92,NNE,18,0.0,0.0,71,0.00,,,0.00,LWC V2.10 B1702,2013-06-18 14:20:00,
2013-06-18 10:25:00,78.5,66.2,29.92,NW,323,0.0,0.0,66,0.00,,,0.00,LWC V2.10 B1702,2013-06-18 14:25:00,
2013-06-18 10:30:00,78.6,65.8,29.92,NW,323,0.0,0.0,65,0.00,,,0.00,LWC V2.10 B1702,2013-06-18 14:30:00,
2013-06-18 10:35:00,78.5,66.6,29.92,NW,323,0.0,0.0,67,0.00,,,0.00,LWC V2.10 B1702,2013-06-18 14:35:00,
2013-06-18 10:40:00,78.9,67.0,29.92,NW,324,0.0,0.0,67,0.00,,,0.00,LWC V2.10 B1702,2013-06-18 14:40:00,
2013-06-18 10:45:00,79.4,67.0,29.92,NW,324,0.0,0.0,66,0.00,,,0.00,LWC V2.10 B1702,2013-06-18 14:45:00,
2013-06-18 10:50:00,79.2,65.9,29.92,NW,318,0.0,0.0,64,0.00,,,0.00,LWC V2.10 B1702,2013-06-18 14:50:00,
2013-06-18 10:55:00,78.9,66.1,29.91,NW,318,0.0,0.0,65,0.00,,,0.00,LWC V2.10 B1702,2013-06-18 14:55:00,
2013-06-18 11:00:00,79.1,67.2,29.91,NW,318,0.0,0.0,67,0.00,,,0.00,LWC V2.10 B1702,2013-06-18 15:00:00,
2013-06-18 11:05:00,79.3,66.0,29.91,NNW,333,0.0,0.0,64,0.00,,,0.00,LWC V2.10 B1702,2013-06-18 15:05:00,
2013-06-18 11:10:00,79.3,67.8,29.91,NW,304,0.0,0.0,68,0.00,,,0.00,LWC V2.10 B1702,2013-06-18 15:10:00,
2013-06-18 11:15:00,79.6,64.9,29.91,WNW,296,1.0,1.0,61,0.00,,,0.00,LWC V2.10 B1702,2013-06-18 15:15:00,
2013-06-18 11:20:00,79.4,65.2,29.91,West,280,1.0,2.0,62,0.00,,,0.00,LWC V2.10 B1702,2013-06-18 15:20:00,
2013-06-18 11:25:00,79.3,65.1,29.91,NW,321,1.0,2.0,62,0.00,,,0.00,LWC V2.10 B1702,2013-06-18 15:25:00,
2013-06-18 11:30:00,79.4,64.8,29.91,NW,306,0.0,0.0,61,0.00,,,0.00,LWC V2.10 B1702,2013-06-18 15:30:00,
2013-06-18 11:35:00,79.5,65.3,29.91,NW,321,0.0,1.0,62,0.00,,,0.00,LWC V2.10 B1702,2013-06-18 15:35:00,
2013-06-18 11:40:00,80.0,66.2,29.90,NNW,331,0.0,1.0,63,0.00,,,0.00,LWC V2.10 B1702,2013-06-18 15:40:00,
2013-06-18 11:45:00,80.3,67.4,29.90,West,268,0.0,1.0,65,0.00,,,0.00,LWC V2.10 B1702,2013-06-18 15:45:00,
2013-06-18 11:50:00,81.0,66.7,29.90,NW,317,0.0,0.0,62,0.00,,,0.00,LWC V2.10 B1702,2013-06-18 15:50:00,
2013-06-18 11:55:00,81.5,65.8,29.90,NNW,331,0.0,1.0,59,0.00,,,0.00,LWC V2.10 B1702,2013-06-18 15:55:00,
2013-06-18 12:00:00,82.1,66.3,29.90,WSW,251,1.0,2.0,59,0.00,,,0.00,LWC V2.10 B1702,2013-06-18 16:00:00,
2013-06-18 12:05:00,82.4,66.6,29.90,ESE,113,1.0,1.0,59,0.00,,,0.00,LWC V2.10 B1702,2013-06-18 16:05:00,
2013-06-18 12:10:00,83.0,67.7,29.90,ESE,116,1.0,1.0,60,0.00,,,0.00,LWC V2.10 B1702,2013-06-18 16:10:00,
2013-06-18 12:15:00,83.6,67.2,29.90,ESE,116,0.0,1.0,58,0.00,,,0.00,LWC V2.10 B1702,2013-06-18 16:15:00,
2013-06-18 12:20:00,84.1,68.2,29.90,SSW,208,0.0,2.0,59,0.00,,,0.00,LWC V2.10 B1702,2013-06-18 16:20:00,
2013-06-18 12:25:00,83.8,66.9,29.90,East,96,0.0,0.0,57,0.00,,,0.00,LWC V2.10 B1702,2013-06-18 16:25:00,
2013-06-18 12:30:00,83.8,63.7,29.90,SW,221,0.0,3.0,51,0.00,,,0.00,LWC V2.10 B1702,2013-06-18 16:30:00,
2013-06-18 12:35:00,83.8,65.3,29.90,East,84,0.0,0.0,54,0.00,,,0.00,LWC V2.10 B1702,2013-06-18 16:35:00,
2013-06-18 12:40:00,82.9,65.6,29.90,WNW,295,2.0,4.0,56,0.00,,,0.00,LWC V2.10 B1702,2013-06-18 16:40:00,
2013-06-18 12:45:00,81.4,66.2,29.90,SE,136,0.0,1.0,60,0.00,,,0.00,LWC V2.10 B1702,2013-06-18 16:45:00,
2013-06-18 12:50:00,81.0,65.3,29.90,SE,133,0.0,2.0,59,0.00,,,0.00,LWC V2.10 B1702,2013-06-18 16:50:00,
2013-06-18 12:55:00,80.9,64.7,29.90,SSE,162,0.0,2.0,58,0.00,,,0.00,LWC V2.10 B1702,2013-06-18 16:55:00,
2013-06-18 13:00:00,81.3,65.6,29.90,South,180,0.0,0.0,59,0.00,,,0.00,LWC V2.10 B1702,2013-06-18 17:00:00,
2013-06-18 13:05:00,81.3,65.1,29.90,SSE,163,0.0,1.0,58,0.00,,,0.00,LWC V2.10 B1702,2013-06-18 17:05:00,
2013-06-18 13:10:00,81.0,66.3,29.90,SE,127,0.0,1.0,61,0.00,,,0.00,LWC V2.10 B1702,2013-06-18 17:10:00,
2013-06-18 13:15:00,80.5,65.3,29.90,ESE,110,0.0,1.0,60,0.00,,,0.00,LWC V2.10 B1702,2013-06-18 17:15:00,
2013-06-18 13:20:00,80.0,66.2,29.90,WSW,242,0.0,2.0,63,0.00,,,0.00,LWC V2.10 B1702,2013-06-18 17:20:00,
2013-06-18 13:25:00,79.6,66.3,29.90,South,171,1.0,1.0,64,0.00,,,0.00,LWC V2.10 B1702,2013-06-18 17:25:00,
2013-06-18 13:30:00,79.3,66.0,29.89,SE,146,1.0,1.0,64,0.00,,,0.00,LWC V2.10 B1702,2013-06-18 17:30:00,
2013-06-18 13:35:00,79.0,65.3,29.89,ESE,115,0.0,1.0,63,0.00,,,0.00,LWC V2.10 B1702,2013-06-18 17:35:00,
2013-06-18 13:40:00,78.9,66.6,29.89,ESE,111,1.0,2.0,66,0.00,,,0.00,LWC V2.10 B1702,2013-06-18 17:40:00,
2013-06-18 13:45:00,79.4,67.0,29.89,SE,128,3.0,3.0,66,0.00,,,0.00,LWC V2.10 B1702,2013-06-18 17:45:00,
2013-06-18 13:50:00,80.1,65.4,29.89,SW,226,1.0,3.0,61,0.00,,,0.00,LWC V2.10 B1702,2013-06-18 17:50:00,
2013-06-18 13:55:00,80.5,65.8,29.89,East,88,0.0,2.0,61,0.00,,,0.00,LWC V2.10 B1702,2013-06-18 17:55:00,
2013-06-18 14:00:00,81.0,65.8,29.88,ESE,110,0.0,1.0,60,0.00,,,0.00,LWC V2.10 B1702,2013-06-18 18:00:00,
2013-06-18 14:05:00,81.3,66.1,29.88,ESE,102,1.0,1.0,60,0.00,,,0.00,LWC V2.10 B1702,2013-06-18 18:05:00,
2013-06-18 14:10:00,81.5,65.8,29.88,SSE,148,0.0,1.0,59,0.00,,,0.00,LWC V2.10 B1702,2013-06-18 18:10:00,
2013-06-18 14:15:00,81.4,66.2,29.88,SE,145,0.0,2.0,60,0.00,,,0.00,LWC V2.10 B1702,2013-06-18 18:15:00,
2013-06-18 14:20:00,81.1,64.9,29.88,South,190,0.0,2.0,58,0.00,,,0.00,LWC V2.10 B1702,2013-06-18 18:20:00,
2013-06-18 14:25:00,80.6,65.9,29.88,SE,130,2.0,3.0,61,0.00,,,0.00,LWC V2.10 B1702,2013-06-18 18:25:00,
2013-06-18 14:30:00,79.9,64.3,29.88,SW,223,1.0,3.0,59,0.00,,,0.00,LWC V2.10 B1702,2013-06-18 18:30:00,
2013-06-18 14:35:00,79.3,65.6,29.87,SSE,157,1.0,2.0,63,0.00,,,0.00,LWC V2.10 B1702,2013-06-18 18:35:00,
2013-06-18 14:41:00,78.9,64.8,29.87,South,184,0.0,3.0,62,0.00,,,0.00,LWC V2.10 B1702,2013-06-18 18:41:00,
2013-06-18 14:46:00,78.8,65.6,29.87,SW,224,2.0,3.0,64,0.00,,,0.00,LWC V2.10 B1702,2013-06-18 18:46:00,
2013-06-18 14:51:00,78.6,65.8,29.87,NE,37,0.0,2.0,65,0.00,,,0.00,LWC V2.10 B1702,2013-06-18 18:51:00,
2013-06-18 14:56:00,78.2,65.9,29.87,SW,220,1.0,3.0,66,0.00,,,0.00,LWC V2.10 B1702,2013-06-18 18:56:00,
2013-06-18 15:01:00,77.7,66.7,29.87,East,80,0.0,1.0,69,0.00,,,0.00,LWC V2.10 B1702,2013-06-18 19:01:00,
2013-06-18 15:06:00,77.5,66.1,29.86,SE,128,0.0,2.0,68,0.00,,,0.00,LWC V2.10 B1702,2013-06-18 19:06:00,
2013-06-18 15:11:00,77.4,66.4,29.86,SE,125,0.0,0.0,69,0.00,,,0.00,LWC V2.10 B1702,2013-06-18 19:11:00,
2013-06-18 15:16:00,77.3,66.7,29.86,SSE,147,0.0,3.0,70,0.00,,,0.00,LWC V2.10 B1702,2013-06-18 19:16:00,
2013-06-18 15:21:00,77.1,66.5,29.86,SE,142,1.0,1.0,70,0.00,,,0.00,LWC V2.10 B1702,2013-06-18 19:21:00,
2013-06-18 15:26:00,77.0,66.0,29.86,SE,142,0.0,2.0,69,0.00,,,0.00,LWC V2.10 B1702,2013-06-18 19:26:00,
2013-06-18 15:31:00,76.7,65.7,29.86,SE,146,0.0,3.0,69,0.00,,,0.00,LWC V2.10 B1702,2013-06-18 19:31:00,
2013-06-18 15:36:00,76.2,65.7,29.86,East,84,1.0,2.0,70,0.00,,,0.00,LWC V2.10 B1702,2013-06-18 19:36:00,
2013-06-18 15:41:00,75.6,65.5,29.87,ESE,107,1.0,1.0,71,0.00,,,0.00,LWC V2.10 B1702,2013-06-18 19:41:00,
2013-06-18 15:46:00,75.3,65.2,29.87,East,88,0.0,2.0,71,0.00,,,0.00,LWC V2.10 B1702,2013-06-18 19:46:00,
2013-06-18 15:51:00,74.7,63.8,29.88,ESE,103,0.0,1.0,69,0.00,,,0.00,LWC V2.10 B1702,2013-06-18 19:51:00,
2013-06-18 15:56:00,74.4,63.5,29.88,East,101,0.0,1.0,69,0.00,,,0.00,LWC V2.10 B1702,2013-06-18 19:56:00,
2013-06-18 16:01:00,74.1,63.3,29.89,ESE,111,2.0,2.0,69,0.00,,,0.00,LWC V2.10 B1702,2013-06-18 20:01:00,
2013-06-18 16:06:00,73.8,63.4,29.89,SE,126,0.0,1.0,70,0.00,,,0.00,LWC V2.10 B1702,2013-06-18 20:06:00,
2013-06-18 16:11:00,73.6,63.2,29.89,SE,126,0.0,1.0,70,0.00,,,0.00,LWC V2.10 B1702,2013-06-18 20:11:00,
2013-06-18 16:16:00,73.3,63.3,29.89,SE,134,0.0,1.0,71,0.00,,,0.00,LWC V2.10 B1702,2013-06-18 20:16:00,
2013-06-18 16:21:00,73.1,63.5,29.89,East,82,0.0,2.0,72,0.00,,,0.00,LWC V2.10 B1702,2013-06-18 20:21:00,
2013-06-18 16:26:00,73.0,63.4,29.89,East,79,0.0,0.0,72,0.00,,,0.00,LWC V2.10 B1702,2013-06-18 20:26:00,
2013-06-18 16:31:00,72.8,64.0,29.89,NE,43,1.0,2.0,74,0.00,,,0.00,LWC V2.10 B1702,2013-06-18 20:31:00,
2013-06-18 16:36:00,72.5,64.1,29.89,NNE,13,4.0,4.0,75,0.00,,,0.00,LWC V2.10 B1702,2013-06-18 20:36:00,
2013-06-18 16:41:00,71.8,63.4,29.89,North,10,2.0,4.0,75,0.00,,,0.00,LWC V2.10 B1702,2013-06-18 20:41:00,
2013-06-18 16:46:00,71.2,63.6,29.90,ENE,57,1.0,3.0,77,0.00,,,0.00,LWC V2.10 B1702,2013-06-18 20:46:00,
2013-06-18 16:51:00,70.8,63.2,29.90,NE,43,1.0,2.0,77,0.00,,,0.00,LWC V2.10 B1702,2013-06-18 20:51:00,
2013-06-18 16:56:00,70.4,63.2,29.90,ENE,74,1.0,3.0,78,0.00,,,0.00,LWC V2.10 B1702,2013-06-18 20:56:00,
2013-06-18 17:01:00,70.0,62.8,29.90,ENE,78,2.0,3.0,78,0.00,,,0.00,LWC V2.10 B1702,2013-06-18 21:01:00,
2013-06-18 17:06:00,69.5,62.7,29.89,ENE,67,0.0,4.0,79,0.00,,,0.00,LWC V2.10 B1702,2013-06-18 21:06:00,
2013-06-18 17:11:00,69.1,62.3,29.90,NE,35,2.0,2.0,79,0.00,,,0.00,LWC V2.10 B1702,2013-06-18 21:11:00,
2013-06-18 17:16:00,68.7,62.3,29.90,NE,49,0.0,3.0,80,0.00,,,0.00,LWC V2.10 B1702,2013-06-18 21:16:00,
2013-06-18 17:21:00,68.3,61.9,29.90,North,5,1.0,2.0,80,0.00,,,0.00,LWC V2.10 B1702,2013-06-18 21:21:00,
2013-06-18 17:26:00,67.8,61.4,29.90,NNE,28,2.0,3.0,80,0.00,,,0.00,LWC V2.10 B1702,2013-06-18 21:26:00,
2013-06-18 17:31:00,67.4,61.4,29.90,ESE,103,0.0,1.0,81,0.00,,,0.00,LWC V2.10 B1702,2013-06-18 21:31:00,
2013-06-18 17:36:00,66.9,60.5,29.91,ENE,60,2.0,2.0,80,0.00,,,0.00,LWC V2.10 B1702,2013-06-18 21:36:00,
2013-06-18 17:41:00,66.4,60.0,29.90,NE,51,0.0,2.0,80,0.00,,,0.00,LWC V2.10 B1702,2013-06-18 21:41:00,
2013-06-18 17:46:00,66.2,60.2,29.90,North,0,2.0,5.0,81,0.00,,,0.00,LWC V2.10 B1702,2013-06-18 21:46:00,
2013-06-18 17:51:00,65.8,59.8,29.91,North,355,0.0,3.0,81,0.00,,,0.00,LWC V2.10 B1702,2013-06-18 21:51:00,
2013-06-18 17:56:00,65.7,59.7,29.90,ENE,77,1.0,2.0,81,0.00,,,0.00,LWC V2.10 B1702,2013-06-18 21:56:00,
2013-06-18 18:01:00,65.6,59.9,29.90,ENE,77,1.0,2.0,82,0.00,,,0.00,LWC V2.10 B1702,2013-06-18 22:01:00,
2013-06-18 18:06:00,65.5,59.5,29.91,NNE,27,0.0,2.0,81,0.00,,,0.00,LWC V2.10 B1702,2013-06-18 22:06:00,
2013-06-18 18:11:00,65.4,59.8,29.91,NE,53,0.0,3.0,82,0.00,,,0.00,LWC V2.10 B1702,2013-06-18 22:11:00,
2013-06-18 18:16:00,65.2,59.6,29.91,ENE,58,0.0,3.0,82,0.00,,,0.00,LWC V2.10 B1702,2013-06-18 22:16:00,
2013-06-18 18:21:00,65.1,59.1,29.91,NE,53,0.0,1.0,81,0.00,,,0.00,LWC V2.10 B1702,2013-06-18 22:21:00,
2013-06-18 18:26:00,64.9,58.9,29.91,NNE,25,0.0,4.0,81,0.00,,,0.00,LWC V2.10 B1702,2013-06-18 22:26:00,
2013-06-18 18:31:00,64.8,58.8,29.90,NE,50,2.0,3.0,81,0.00,,,0.00,LWC V2.10 B1702,2013-06-18 22:31:00,
2013-06-18 18:36:00,64.6,58.6,29.90,East,83,1.0,3.0,81,0.00,,,0.00,LWC V2.10 B1702,2013-06-18 22:36:00,
2013-06-18 18:41:00,64.4,58.4,29.89,NE,56,0.0,3.0,81,0.00,,,0.00,LWC V2.10 B1702,2013-06-18 22:41:00,
2013-06-18 18:46:00,64.3,58.7,29.88,ENE,60,0.0,2.0,82,0.00,,,0.00,LWC V2.10 B1702,2013-06-18 22:46:00,
2013-06-18 18:51:00,64.2,58.6,29.88,ENE,72,1.0,2.0,82,0.00,,,0.00,LWC V2.10 B1702,2013-06-18 22:51:00,
2013-06-18 18:56:00,64.1,58.5,29.87,ENE,71,1.0,2.0,82,0.00,,,0.00,LWC V2.10 B1702,2013-06-18 22:56:00,
2013-06-18 19:01:00,64.0,58.4,29.87,NE,46,0.0,2.0,82,0.00,,,0.00,LWC V2.10 B1702,2013-06-18 23:01:00,
2013-06-18 19:06:00,64.0,58.4,29.86,ENE,77,0.0,2.0,82,0.00,,,0.00,LWC V2.10 B1702,2013-06-18 23:06:00,
2013-06-18 19:11:00,63.9,58.3,29.86,East,80,1.0,2.0,82,0.00,,,0.00,LWC V2.10 B1702,2013-06-18 23:11:00,
2013-06-18 19:16:00,63.8,57.9,29.86,SE,129,0.0,5.0,81,0.00,,,0.00,LWC V2.10 B1702,2013-06-18 23:16:00,
2013-06-18 19:21:00,63.8,57.9,29.86,East,82,2.0,3.0,81,0.00,,,0.00,LWC V2.10 B1702,2013-06-18 23:21:00,
2013-06-18 19:26:00,63.7,57.8,29.85,ENE,76,0.0,3.0,81,0.00,,,0.00,LWC V2.10 B1702,2013-06-18 23:26:00,
2013-06-18 19:31:00,63.7,57.8,29.85,ESE,109,0.0,2.0,81,0.00,,,0.00,LWC V2.10 B1702,2013-06-18 23:31:00,
2013-06-18 19:36:00,63.6,57.7,29.86,ESE,117,1.0,1.0,81,0.00,,,0.00,LWC V2.10 B1702,2013-06-18 23:36:00,
2013-06-18 19:41:00,63.6,57.3,29.87,East,85,0.0,1.0,80,0.00,,,0.00,LWC V2.10 B1702,2013-06-18 23:41:00,
2013-06-18 19:46:00,63.6,57.3,29.88,East,86,0.0,0.0,80,0.00,,,0.00,LWC V2.10 B1702,2013-06-18 23:46:00,
2013-06-18 19:51:00,63.6,57.7,29.89,NNE,19,1.0,1.0,81,0.00,,,0.00,LWC V2.10 B1702,2013-06-18 23:51:00,
2013-06-18 19:56:00,63.6,57.7,29.88,NNE,26,0.0,1.0,81,0.00,,,0.00,LWC V2.10 B1702,2013-06-18 23:56:00,
2013-06-18 20:01:00,63.6,57.7,29.88,NNE,32,0.0,0.0,81,0.00,,,0.00,LWC V2.10 B1702,2013-06-19 00:01:00,
2013-06-18 20:06:00,63.6,58.0,29.89,NNE,32,0.0,0.0,82,0.00,,,0.00,LWC V2.10 B1702,2013-06-19 00:06:00,
2013-06-18 20:11:00,63.6,58.0,29.89,NNE,32,0.0,1.0,82,0.00,,,0.00,LWC V2.10 B1702,2013-06-19 00:11:00,
2013-06-18 20:16:00,63.6,58.0,29.88,NNE,32,1.0,1.0,82,0.00,,,0.00,LWC V2.10 B1702,2013-06-19 00:16:00,
2013-06-18 20:21:00,63.6,58.0,29.88,NNE,32,0.0,1.0,82,0.00,,,0.00,LWC V2.10 B1702,2013-06-19 00:21:00,
2013-06-18 20:26:00,63.6,58.0,29.89,NNE,32,0.0,1.0,82,0.00,,,0.00,LWC V2.10 B1702,2013-06-19 00:26:00,
2013-06-18 20:31:00,63.6,58.0,29.89,NNE,32,0.0,0.0,82,0.00,,,0.00,LWC V2.10 B1702,2013-06-19 00:31:00,
2013-06-18 20:36:00,63.6,58.0,29.90,NNE,30,0.0,1.0,82,0.00,,,0.00,LWC V2.10 B1702,2013-06-19 00:36:00,
2013-06-18 20:41:00,63.6,58.0,29.90,NNE,18,0.0,3.0,82,0.00,,,0.00,LWC V2.10 B1702,2013-06-19 00:41:00,
2013-06-18 20:46:00,63.5,58.2,29.90,NNE,18,0.0,0.0,83,0.00,,,0.00,LWC V2.10 B1702,2013-06-19 00:46:00,
2013-06-18 20:51:00,63.6,58.3,29.91,NNE,18,0.0,0.0,83,0.00,,,0.00,LWC V2.10 B1702,2013-06-19 00:51:00,
2013-06-18 20:56:00,63.6,58.7,29.90,NNE,18,0.0,0.0,84,0.00,,,0.00,LWC V2.10 B1702,2013-06-19 00:56:00,
2013-06-18 21:01:00,63.6,58.7,29.91,NNE,18,0.0,0.0,84,0.00,,,0.00,LWC V2.10 B1702,2013-06-19 01:01:00,
2013-06-18 21:06:00,63.6,59.0,29.91,NNE,18,0.0,0.0,85,0.00,,,0.00,LWC V2.10 B1702,2013-06-19 01:06:00,
2013-06-18 21:11:00,63.4,58.8,29.90,NNE,18,0.0,0.0,85,0.00,,,0.00,LWC V2.10 B1702,2013-06-19 01:11:00,
2013-06-18 21:16:00,63.3,59.0,29.90,NNE,18,0.0,0.0,86,0.00,,,0.00,LWC V2.10 B1702,2013-06-19 01:16:00,
2013-06-18 21:21:00,63.2,58.9,29.90,NNE,18,0.0,0.0,86,0.00,,,0.01,LWC V2.10 B1702,2013-06-19 01:21:00,
2013-06-18 21:26:00,63.0,58.7,29.90,NNE,18,0.0,0.0,86,0.00,,,0.01,LWC V2.10 B1702,2013-06-19 01:26:00,
2013-06-18 21:31:00,62.9,59.0,29.90,NNE,18,0.0,0.0,87,0.00,,,0.01,LWC V2.10 B1702,2013-06-19 01:31:00,
2013-06-18 21:36:00,62.9,59.0,29.91,NNE,18,0.0,0.0,87,0.00,,,0.01,LWC V2.10 B1702,2013-06-19 01:36:00,
2013-06-18 21:41:00,62.7,59.1,29.91,NNE,18,0.0,0.0,88,0.00,,,0.01,LWC V2.10 B1702,2013-06-19 01:41:00,
2013-06-18 21:46:00,62.7,59.1,29.91,NNE,18,0.0,0.0,88,0.00,,,0.01,LWC V2.10 B1702,2013-06-19 01:46:00,
2013-06-18 21:51:00,62.5,58.9,29.91,NNE,18,0.0,0.0,88,0.00,,,0.01,LWC V2.10 B1702,2013-06-19 01:51:00,
2013-06-18 21:56:00,62.5,59.2,29.91,NNE,18,0.0,0.0,89,0.00,,,0.01,LWC V2.10 B1702,2013-06-19 01:56:00,
2013-06-18 22:01:00,62.5,59.2,29.91,NNE,18,0.0,0.0,89,0.00,,,0.01,LWC V2.10 B1702,2013-06-19 02:01:00,
2013-06-18 22:06:00,62.4,59.1,29.91,NNE,18,1.0,1.0,89,0.00,,,0.01,LWC V2.10 B1702,2013-06-19 02:06:00,
2013-06-18 22:11:00,62.3,59.0,29.91,NNE,18,0.0,0.0,89,0.00,,,0.01,LWC V2.10 B1702,2013-06-19 02:11:00,
2013-06-18 22:16:00,62.3,59.0,29.91,NNE,18,0.0,0.0,89,0.00,,,0.01,LWC V2.10 B1702,2013-06-19 02:16:00,
2013-06-18 22:21:00,62.2,58.9,29.91,NNE,18,0.0,0.0,89,0.00,,,0.01,LWC V2.10 B1702,2013-06-19 02:21:00,
2013-06-18 22:26:00,62.2,58.9,29.91,North,11,0.0,0.0,89,0.00,,,0.01,LWC V2.10 B1702,2013-06-19 02:26:00,
2013-06-18 22:31:00,62.1,58.8,29.91,North,11,0.0,0.0,89,0.00,,,0.01,LWC V2.10 B1702,2013-06-19 02:31:00,
2013-06-18 22:36:00,62.1,59.1,29.90,North,11,0.0,1.0,90,0.00,,,0.01,LWC V2.10 B1702,2013-06-19 02:36:00,
2013-06-18 22:41:00,62.0,59.0,29.90,North,11,0.0,1.0,90,0.00,,,0.01,LWC V2.10 B1702,2013-06-19 02:41:00,
2013-06-18 22:46:00,61.9,58.9,29.90,North,11,0.0,0.0,90,0.00,,,0.01,LWC V2.10 B1702,2013-06-19 02:46:00,
2013-06-18 22:51:00,61.8,58.8,29.90,North,11,0.0,0.0,90,0.00,,,0.01,LWC V2.10 B1702,2013-06-19 02:51:00,
2013-06-18 22:56:00,61.8,58.8,29.89,North,11,0.0,1.0,90,0.00,,,0.01,LWC V2.10 B1702,2013-06-19 02:56:00,
2013-06-18 23:01:00,61.7,58.7,29.89,North,11,0.0,0.0,90,0.00,,,0.01,LWC V2.10 B1702,2013-06-19 03:01:00,
2013-06-18 23:06:00,61.6,58.6,29.89,North,11,0.0,1.0,90,0.00,,,0.01,LWC V2.10 B1702,2013-06-19 03:06:00,
2013-06-18 23:11:00,61.5,58.5,29.89,North,11,0.0,0.0,90,0.00,,,0.01,LWC V2.10 B1702,2013-06-19 03:11:00,
2013-06-18 23:16:00,61.5,58.5,29.88,North,11,0.0,0.0,90,0.00,,,0.01,LWC V2.10 B1702,2013-06-19 03:16:00,
2013-06-18 23:21:00,61.4,58.4,29.88,North,11,0.0,0.0,90,0.00,,,0.02,LWC V2.10 B1702,2013-06-19 03:21:00,
2013-06-18 23:26:00,61.4,58.4,29.88,North,11,0.0,0.0,90,0.00,,,0.02,LWC V2.10 B1702,2013-06-19 03:26:00,
2013-06-18 23:31:00,61.4,58.7,29.88,North,11,0.0,0.0,91,0.00,,,0.02,LWC V2.10 B1702,2013-06-19 03:31:00,
2013-06-18 23:36:00,61.4,58.7,29.87,North,11,0.0,0.0,91,0.00,,,0.02,LWC V2.10 B1702,2013-06-19 03:36:00,
2013-06-18 23:41:00,61.4,58.7,29.87,North,11,0.0,0.0,91,0.00,,,0.02,LWC V2.10 B1702,2013-06-19 03:41:00,
2013-06-18 23:46:00,61.4,58.7,29.87,North,11,0.0,0.0,91,0.00,,,0.02,LWC V2.10 B1702,2013-06-19 03:46:00,
2013-06-18 23:51:00,61.3,58.6,29.86,North,11,0.0,2.0,91,0.00,,,0.02,LWC V2.10 B1702,2013-06-19 03:51:00,
2013-06-18 23:56:00,61.3,58.6,29.86,North,11,0.0,2.0,91,0.00,,,0.02,LWC V2.10 B1702,2013-06-19 03:56:00,